Home   Weather   Dharamshala   Past weeks

Flag for India Past Weather in Dharamshala, Himachal Pradesh, India — Yesterday and Last 2 Weeks

Now
82 °F

Thunderstorms. Partly cloudy.


Feels Like: 82 °F
Forecast: 59 / 74 °F
Wind: 13 mph from Northeast

Location: Amritsar Airport

Current Time: May 29, 2017 at 12:14:16 am

Latest Report: May 28, 2017 at 11:30 pm


Visibility: 1 mi

Pressure: 29.56 "Hg (25.27 "Hg at 1382m altitude)

Humidity: 40%

Dew Point: 55 °F

Location of DharamshalaLocation

Past Weather in Dharamshala — Graph

°F

Dharamshala Temperature Yesterday

Maximum temperature yesterday: 102 °F (at 4:00 pm)
Minimum temperature yesterday: 84 °F (at 4:30 am)
Average temperature yesterday: 93 °F

High & Low Weather Summary for the Past Weeks

 TemperatureHumidityPressure
High109 °F (May 26, 4:30 pm)100% (May 21, 10:00 am)29.77 "Hg (May 21, 10:00 am)
Low66 °F (May 27, 1:30 am)15% (May 15, 3:00 pm)29.45 "Hg (May 26, 4:30 pm)
Average89 °F45%29.60 "Hg
* Reported May 13 10:30 pm — May 28 10:30 pm, Dharamshala. Weather by CustomWeather, © 2017

Note: Actual official high and low records may vary slightly from our data, if they occured in-between our weather recording intervals... More about our weather records

Advertising

Dharamshala Weather History for the Previous 24 Hours

Scroll right to see more
 ConditionsComfort  
Time TempWeatherWind HumidityBarometerVisibility
10:30 pm
Sun, May 28
84 °FThunderstorms. Partly cloudy.25 mph37%29.59 "Hg1 mi
10:00 pm84 °FThunderstorms. Passing clouds.28 mph40%29.56 "Hg1 mi
9:30 pm93 °FPassing clouds.No wind47%29.47 "Hg3 mi
9:00 pm93 °FPassing clouds.No wind47%29.47 "Hg3 mi
8:30 pm95 °FPassing clouds.No wind44%29.47 "Hg3 mi
7:30 pm97 °FScattered clouds.2 mph39%29.45 "Hg3 mi
7:00 pm99 °FScattered clouds.3 mph37%29.45 "Hg3 mi
6:30 pm99 °FScattered clouds.6 mph37%29.45 "Hg3 mi
6:00 pm100 °FClear.1 mph33%29.45 "Hg4 mi
5:30 pm100 °FClear.5 mph33%29.45 "Hg4 mi
5:00 pm100 °FClear.2 mph35%29.45 "Hg4 mi
4:30 pm100 °FClear.6 mph33%29.47 "Hg4 mi
4:00 pm102 °FClear.8 mph33%29.47 "Hg4 mi
3:00 pm100 °FClear.10 mph35%29.50 "Hg4 mi
2:30 pm100 °FClear.10 mph35%29.53 "Hg4 mi
2:00 pm99 °FClear.13 mph35%29.53 "Hg4 mi
1:30 pm99 °FClear.12 mph37%29.53 "Hg4 mi
1:00 pm97 °FClear.10 mph39%29.56 "Hg4 mi
12:30 pm97 °FClear.15 mph39%29.56 "Hg4 mi
12:00 pm97 °FClear.14 mph37%29.56 "Hg4 mi
11:30 am95 °FClear.14 mph39%29.59 "Hg4 mi
11:00 am93 °FClear.14 mph41%29.59 "Hg4 mi
10:30 am91 °FClear.14 mph44%29.59 "Hg4 mi
10:00 am91 °FClear.15 mph44%29.59 "Hg4 mi
9:30 am90 °FClear.15 mph46%29.59 "Hg4 mi
9:00 am88 °FClear.16 mph49%29.59 "Hg4 mi
8:00 am86 °FClear.9 mph59%29.59 "Hg4 mi
7:30 am86 °FHaze.9 mph59%29.56 "Hg3 mi
7:00 am84 °FHaze.10 mph62%29.53 "Hg3 mi
5:30 am84 °FPassing clouds.13 mph62%29.50 "Hg2 mi
4:30 am84 °FPassing clouds.16 mph62%29.50 "Hg2 mi
4:00 am86 °FPassing clouds.13 mph59%29.50 "Hg2 mi
3:30 am86 °FPassing clouds.13 mph62%29.50 "Hg2 mi
3:00 am88 °FPassing clouds.10 mph59%29.50 "Hg2 mi
2:30 am88 °FPassing clouds.10 mph59%29.50 "Hg2 mi
2:00 am88 °FPassing clouds.10 mph59%29.50 "Hg2 mi
1:30 am90 °FPassing clouds.15 mph55%29.47 "Hg2 mi
1:00 am90 °FPassing clouds.14 mph55%29.47 "Hg2 mi
12:30 am91 °FPassing clouds.12 mph49%29.47 "Hg2 mi
12:00 am90 °FHaze.5 mph43%29.47 "Hg2 mi
Weather by CustomWeather, © 2017

See weather overviewHow to use our weather pages